Weather History for Fairfield, IA

Change the Weather History Date:

Sunday, January 19, 2014

  Actual Average Record
Temperature  
Mean Temperature 31 °F -  
Max Temperature 48 °F 31 °F 57 °F (1989)
Min Temperature 14 °F 12 °F -17 °F (1970)
Degree Days  
Heating Degree Days 34    
Moisture  
Dew Point 22 °F    
Average Humidity 67    
Maximum Humidity 86    
Minimum Humidity 46    
Precipitation  
Precipitation 0.00 in - - ()
Sea Level Pressure  
Sea Level Pressure 29.77 in    
Wind  
Wind Speed 12 mph (WSW)    
Max Wind Speed 23 mph    
Max Gust Speed 29 mph    
Visibility 10 miles    
Events      
Averages and records for this station are not official NWS values.
T = Trace of Precipitation, MM = Missing Value Source: NWS Daily Summary

Daily Weather History Graph

Daily Weather History Graph

Search for Another Location

Airport:

Trip Planner

Search our weather history database for the weather conditions in past years. The results will help you decide how hot, cold, wet, or windy it might be!

Date:

Astronomy

Jan. 19, 2014 Rise Set
Actual Time 7:28 AM CST 5:09 PM CST
Civil Twilight 6:58 AM CST 5:39 PM CST
Nautical Twilight 6:25 AM CST 6:12 PM CST
Astronomical Twilight 5:52 AM CST 6:45 PM CST
Moon 8:49 PM CST (1/19) 8:57 AM CST (1/19)
Length of Visible Light 10h 40m
Length of Day
9h 40m
Waning Gibbous, 89% of the Moon is Illuminated
Jan 19
Waning Gibbous
Jan 23
Last Quarter
Jan 30
New
Feb 6
First Quarter
Feb 14
Full

Hourly Weather History & Observations

Time (CST) Temp. Windchill Dew Point Humidity Pressure Visibility Wind Dir Wind Speed Gust Speed Precip Events Conditions
12:15 AM 14.0 °F 2.9 °F 10.4 °F 86% 29.99 in 10.0 mi West 8.1 mph - N/A   Clear
12:35 AM 14.0 °F 2.0 °F 10.4 °F 86% 29.98 in 10.0 mi WSW 9.2 mph - N/A   Clear
12:55 AM 14.0 °F 1.2 °F 10.4 °F 86% 29.99 in 10.0 mi West 10.4 mph - N/A   Clear
1:15 AM 15.8 °F 3.4 °F 10.4 °F 79% 29.98 in 10.0 mi West 10.4 mph - N/A   Clear
1:35 AM 15.8 °F 5.1 °F 10.4 °F 79% 29.97 in 10.0 mi WSW 8.1 mph - N/A   Scattered Clouds
1:55 AM 15.8 °F 3.4 °F 10.4 °F 79% 29.95 in 10.0 mi SW 10.4 mph - N/A   Overcast
2:15 AM 15.8 °F 3.4 °F 10.4 °F 79% 29.95 in 10.0 mi WSW 10.4 mph - N/A   Mostly Cloudy
2:35 AM 15.8 °F 3.4 °F 10.4 °F 79% 29.95 in 10.0 mi WSW 10.4 mph - N/A   Mostly Cloudy
2:55 AM 15.8 °F 4.2 °F 10.4 °F 79% 29.94 in 10.0 mi SW 9.2 mph - N/A   Mostly Cloudy
3:15 AM 15.8 °F 4.2 °F 10.4 °F 79% 29.94 in 10.0 mi SW 9.2 mph - N/A   Overcast
3:35 AM 15.8 °F 3.4 °F 12.2 °F 86% 29.93 in 10.0 mi SW 10.4 mph - N/A   Overcast
3:55 AM 15.8 °F 3.4 °F 12.2 °F 86% 29.91 in 10.0 mi SW 10.4 mph - N/A   Overcast
4:15 AM 17.6 °F 4.3 °F 12.2 °F 79% 29.91 in 10.0 mi SW 12.7 mph - N/A   Overcast
4:35 AM 17.6 °F 3.7 °F 12.2 °F 79% 29.91 in 10.0 mi SW 13.8 mph - N/A   Overcast
4:55 AM 17.6 °F 2.7 °F 12.2 °F 79% 29.89 in 10.0 mi SW 16.1 mph 21.9 mph N/A   Partly Cloudy
5:15 AM 19.4 °F 6.0 °F 14.0 °F 80% 29.89 in 10.0 mi SW 13.8 mph - N/A   Clear
5:35 AM 17.6 °F 6.4 °F 14.0 °F 86% 29.89 in 10.0 mi SW 9.2 mph - N/A   Clear
5:55 AM 17.6 °F 5.7 °F 14.0 °F 86% 29.88 in 10.0 mi SW 10.4 mph - N/A   Clear
6:15 AM 19.4 °F 7.9 °F 14.0 °F 80% 29.88 in 10.0 mi SW 10.4 mph - N/A   Clear
6:35 AM 17.6 °F 5.0 °F 14.0 °F 86% 29.87 in 10.0 mi SW 11.5 mph - N/A   Clear
6:55 AM 19.4 °F 6.0 °F 14.0 °F 80% 29.86 in 10.0 mi SW 13.8 mph - N/A   Clear
7:15 AM 19.4 °F 5.5 °F 14.0 °F 80% 29.86 in 10.0 mi SW 15.0 mph - N/A   Clear
7:35 AM 19.4 °F 6.0 °F 14.0 °F 80% 29.84 in 10.0 mi SW 13.8 mph - N/A   Clear
7:55 AM 21.2 °F 7.3 °F 15.8 °F 80% 29.83 in 10.0 mi SW 16.1 mph - N/A   Clear
8:15 AM 23.0 °F 9.2 °F 17.6 °F 80% 29.83 in 10.0 mi SW 17.3 mph - N/A   Clear
8:35 AM 24.8 °F 11.5 °F 17.6 °F 74% 29.82 in 10.0 mi SW 17.3 mph - N/A   Clear
8:55 AM 24.8 °F 11.9 °F 19.4 °F 80% 29.82 in 10.0 mi SW 16.1 mph - N/A   Clear
9:15 AM 26.6 °F 13.8 °F 19.4 °F 74% 29.81 in 10.0 mi SW 17.3 mph 24.2 mph N/A   Clear
9:35 AM 28.4 °F 15.4 °F 21.2 °F 74% 29.80 in 10.0 mi SW 19.6 mph 26.5 mph N/A   Clear
9:55 AM 30.2 °F 18.5 °F 23.0 °F 75% 29.79 in 10.0 mi SW 17.3 mph 25.3 mph N/A   Clear
10:15 AM 32.0 °F 20.5 °F 23.0 °F 69% 29.78 in 10.0 mi SW 18.4 mph 27.6 mph N/A   Clear
10:35 AM 35.6 °F 24.5 °F 24.8 °F 65% 29.78 in 10.0 mi SW 20.7 mph - N/A   Clear
10:55 AM 35.6 °F 24.0 °F 24.8 °F 65% 29.76 in 10.0 mi SW 23.0 mph - N/A   Clear
11:15 AM 39.2 °F 29.0 °F 24.8 °F 56% 29.74 in 10.0 mi SW 21.9 mph 27.6 mph N/A   Clear
11:35 AM 39.2 °F 30.2 °F 26.6 °F 61% 29.72 in 10.0 mi SW 17.3 mph 28.8 mph N/A   Clear
11:55 AM 41.0 °F 31.6 °F 24.8 °F 53% 29.73 in 10.0 mi WSW 20.7 mph - N/A   Clear
12:15 PM 41.0 °F 32.5 °F 26.6 °F 57% 29.71 in 10.0 mi WSW 17.3 mph 27.6 mph N/A   Clear
12:35 PM 42.8 °F 35.4 °F 26.6 °F 53% 29.69 in 10.0 mi WSW 15.0 mph 20.7 mph N/A   Clear
12:55 PM 44.6 °F 37.4 °F 28.4 °F 53% 29.67 in 10.0 mi WSW 16.1 mph 23.0 mph N/A   Clear
1:15 PM 44.6 °F 37.4 °F 28.4 °F 53% 29.66 in 10.0 mi SW 16.1 mph 25.3 mph N/A   Clear
1:35 PM 46.4 °F 38.7 °F 28.4 °F 50% 29.65 in 10.0 mi SW 20.7 mph - N/A   Clear
1:55 PM 46.4 °F 39.5 °F 28.4 °F 50% 29.64 in 10.0 mi SW 17.3 mph - N/A   Clear
2:15 PM 46.4 °F 39.2 °F 28.4 °F 50% 29.63 in 10.0 mi SW 18.4 mph 24.2 mph N/A   Clear
2:35 PM 48.2 °F - 28.4 °F 46% 29.64 in 10.0 mi WSW 18.4 mph 25.3 mph N/A   Clear
2:55 PM 48.2 °F - 28.4 °F 46% 29.64 in 10.0 mi SW 16.1 mph 21.9 mph N/A   Clear
3:15 PM 48.2 °F - 30.2 °F 50% 29.62 in 10.0 mi SW 17.3 mph - N/A   Clear
3:35 PM 48.2 °F - 30.2 °F 50% 29.62 in 10.0 mi SW 16.1 mph 23.0 mph N/A   Clear
3:55 PM 48.2 °F - 30.2 °F 50% 29.62 in 10.0 mi SW 13.8 mph - N/A   Clear
4:15 PM 46.4 °F 40.7 °F 30.2 °F 53% 29.62 in 10.0 mi SW 12.7 mph - N/A   Clear
4:35 PM 46.4 °F 41.5 °F 30.2 °F 53% 29.61 in 10.0 mi SW 10.4 mph - N/A   Clear
4:55 PM 44.6 °F 39.2 °F 30.2 °F 57% 29.61 in 10.0 mi SW 10.4 mph - N/A   Clear
5:15 PM 46.4 °F 41.1 °F 28.4 °F 50% 29.62 in 10.0 mi SW 11.5 mph - N/A   Clear
5:35 PM 44.6 °F 38.8 °F 28.4 °F 53% 29.62 in 10.0 mi SW 11.5 mph - N/A   Clear
5:55 PM 44.6 °F 39.2 °F 28.4 °F 53% 29.63 in 10.0 mi WSW 10.4 mph - N/A   Clear
6:15 PM 44.6 °F 39.2 °F 28.4 °F 53% 29.63 in 10.0 mi SW 10.4 mph - N/A   Clear
6:55 PM 44.6 °F 40.2 °F 28.4 °F 53% 29.64 in 10.0 mi WSW 8.1 mph - N/A   Partly Cloudy
7:15 PM 44.6 °F 39.7 °F 28.4 °F 53% 29.65 in 10.0 mi West 9.2 mph - N/A   Partly Cloudy
7:35 PM 46.4 °F 40.1 °F 28.4 °F 50% 29.65 in 10.0 mi West 15.0 mph - N/A   Partly Cloudy
7:55 PM 44.6 °F 38.1 °F 28.4 °F 53% 29.66 in 10.0 mi West 13.8 mph - N/A   Clear
8:15 PM 42.8 °F 36.2 °F 28.4 °F 57% 29.67 in 10.0 mi West 12.7 mph - N/A   Mostly Cloudy
8:35 PM 42.8 °F 36.6 °F 28.4 °F 57% 29.68 in 10.0 mi West 11.5 mph - N/A   Scattered Clouds
8:55 PM 42.8 °F 36.6 °F 28.4 °F 57% 29.68 in 10.0 mi West 11.5 mph - N/A   Clear
9:15 PM 41.0 °F 34.3 °F 28.4 °F 61% 29.69 in 10.0 mi West 11.5 mph - N/A   Clear
9:35 PM 42.8 °F 36.2 °F 28.4 °F 57% 29.69 in 10.0 mi West 12.7 mph - N/A   Clear
9:55 PM 41.0 °F 33.5 °F 30.2 °F 65% 29.71 in 10.0 mi WNW 13.8 mph - N/A   Clear
10:15 PM 39.2 °F 30.8 °F 30.2 °F 70% 29.72 in 10.0 mi WNW 15.0 mph - N/A   Clear
10:35 PM 39.2 °F 31.2 °F 30.2 °F 70% 29.74 in 10.0 mi NW 13.8 mph - N/A   Clear
10:55 PM 37.4 °F 30.3 °F 30.2 °F 75% 29.75 in 10.0 mi WNW 10.4 mph 17.3 mph N/A   Clear
11:15 PM 37.4 °F 30.8 °F 30.2 °F 75% 29.76 in 10.0 mi WNW 9.2 mph - N/A   Clear
11:35 PM 37.4 °F 30.3 °F 30.2 °F 75% 29.76 in 10.0 mi WNW 10.4 mph - N/A   Clear
11:55 PM 37.4 °F 30.8 °F 30.2 °F 75% 29.76 in 10.0 mi WNW 9.2 mph - N/A   Clear